Year,Month,Day,Hour,Minute,Value (Times are PST for temperature in C)
2009,04,16,00,00,5.10
2009,04,16,00,01,5.10
2009,04,16,00,02,5.10
2009,04,16,00,03,5.10
2009,04,16,00,04,5.10
2009,04,16,00,05,5.10
2009,04,16,00,06,5.10
2009,04,16,00,07,5.10
2009,04,16,00,08,5.10
2009,04,16,00,09,5.10
2009,04,16,00,10,4.90
2009,04,16,00,11,4.90
2009,04,16,00,12,4.90
2009,04,16,00,13,4.90
2009,04,16,00,14,4.90
2009,04,16,00,15,4.90
2009,04,16,00,16,4.90
2009,04,16,00,17,4.90
2009,04,16,00,18,4.90
2009,04,16,00,19,4.80
2009,04,16,00,20,4.80
2009,04,16,00,21,4.80
2009,04,16,00,22,4.80
2009,04,16,00,23,4.80
2009,04,16,00,24,4.80
2009,04,16,00,25,4.80
2009,04,16,00,26,4.80
2009,04,16,00,27,4.80
2009,04,16,00,28,4.80
2009,04,16,00,29,4.80
2009,04,16,00,30,4.80
2009,04,16,00,31,4.80
2009,04,16,00,32,4.80
2009,04,16,00,33,4.80
2009,04,16,00,34,4.80
2009,04,16,00,35,4.80
2009,04,16,00,36,4.80
2009,04,16,00,37,4.70
2009,04,16,00,38,4.70
2009,04,16,00,39,4.70
2009,04,16,00,40,4.70
2009,04,16,00,41,4.70
2009,04,16,00,42,4.70
2009,04,16,00,43,4.60
2009,04,16,00,44,4.60
2009,04,16,00,45,4.60
2009,04,16,00,46,4.60
2009,04,16,00,47,4.60
2009,04,16,00,48,4.60
2009,04,16,00,49,4.60
2009,04,16,00,50,4.50
2009,04,16,00,51,4.50
2009,04,16,00,52,4.50
2009,04,16,00,53,4.50
2009,04,16,00,54,4.50
2009,04,16,00,55,4.50
2009,04,16,00,56,4.50
2009,04,16,00,57,4.50
2009,04,16,00,58,4.50
2009,04,16,00,59,4.50
2009,04,16,01,00,4.50
2009,04,16,01,01,4.40
2009,04,16,01,02,4.40
2009,04,16,01,03,4.40
2009,04,16,01,04,4.40
2009,04,16,01,05,4.40
2009,04,16,01,06,4.30
2009,04,16,01,07,4.30
2009,04,16,01,08,4.30
2009,04,16,01,09,4.30
2009,04,16,01,10,4.20
2009,04,16,01,11,4.10
2009,04,16,01,12,4.00
2009,04,16,01,13,4.00
2009,04,16,01,14,3.90
2009,04,16,01,15,3.90
2009,04,16,01,16,3.80
2009,04,16,01,17,3.80
2009,04,16,01,18,3.80
2009,04,16,01,19,3.80
2009,04,16,01,20,3.80
2009,04,16,01,21,3.80
2009,04,16,01,22,3.70
2009,04,16,01,23,3.70
2009,04,16,01,24,3.70
2009,04,16,01,25,3.60
2009,04,16,01,26,3.60
2009,04,16,01,27,3.60
2009,04,16,01,28,3.70
2009,04,16,01,29,3.70
2009,04,16,01,30,3.70
2009,04,16,01,31,3.70
2009,04,16,01,32,3.80
2009,04,16,01,33,3.80
2009,04,16,01,34,3.80
2009,04,16,01,35,3.80
2009,04,16,01,36,3.70
2009,04,16,01,37,3.70
2009,04,16,01,38,3.70
2009,04,16,01,39,3.60
2009,04,16,01,40,3.60
2009,04,16,01,41,3.60
2009,04,16,01,42,3.60
2009,04,16,01,43,3.60
2009,04,16,01,44,3.60
2009,04,16,01,45,3.60
2009,04,16,01,46,3.50
2009,04,16,01,47,3.50
2009,04,16,01,48,3.40
2009,04,16,01,49,3.30
2009,04,16,01,50,3.30
2009,04,16,01,51,3.30
2009,04,16,01,52,3.20
2009,04,16,01,53,3.20
2009,04,16,01,54,3.10
2009,04,16,01,55,3.10
2009,04,16,01,56,3.10
2009,04,16,01,57,3.10
2009,04,16,01,58,3.10
2009,04,16,01,59,3.10
2009,04,16,02,00,3.00
2009,04,16,02,01,2.90
2009,04,16,02,02,2.90
2009,04,16,02,03,2.90
2009,04,16,02,04,2.90
2009,04,16,02,05,2.90
2009,04,16,02,06,2.90
2009,04,16,02,07,2.90
2009,04,16,02,08,2.90
2009,04,16,02,09,2.90
2009,04,16,02,10,2.90
2009,04,16,02,11,2.90
2009,04,16,02,12,2.90
2009,04,16,02,13,2.90
2009,04,16,02,14,2.90
2009,04,16,02,15,2.90
2009,04,16,02,16,2.90
2009,04,16,02,17,2.90
2009,04,16,02,18,3.00
2009,04,16,02,19,3.10
2009,04,16,02,20,3.10
2009,04,16,02,21,3.10
2009,04,16,02,22,3.10
2009,04,16,02,23,3.10
2009,04,16,02,24,3.10
2009,04,16,02,25,3.10
2009,04,16,02,26,3.10
2009,04,16,02,27,3.10
2009,04,16,02,28,3.10
2009,04,16,02,29,3.10
2009,04,16,02,30,3.10
2009,04,16,02,31,3.10
2009,04,16,02,32,3.10
2009,04,16,02,33,3.10
2009,04,16,02,34,3.10
2009,04,16,02,35,3.10
2009,04,16,02,36,3.10
2009,04,16,02,37,3.10
2009,04,16,02,38,3.10
2009,04,16,02,39,3.10
2009,04,16,02,40,3.00
2009,04,16,02,41,2.90
2009,04,16,02,42,2.90
2009,04,16,02,43,2.90
2009,04,16,02,44,2.90
2009,04,16,02,45,2.80
2009,04,16,02,46,2.80
2009,04,16,02,47,2.80
2009,04,16,02,48,2.80
2009,04,16,02,49,2.80
2009,04,16,02,50,2.70
2009,04,16,02,51,2.70
2009,04,16,02,52,2.70
2009,04,16,02,53,2.70
2009,04,16,02,54,2.70
2009,04,16,02,55,2.70
2009,04,16,02,56,2.70
2009,04,16,02,57,2.70
2009,04,16,02,58,2.70
2009,04,16,02,59,2.70
2009,04,16,03,00,2.70
2009,04,16,03,01,2.70
2009,04,16,03,02,2.70
2009,04,16,03,03,2.70
2009,04,16,03,04,2.70
2009,04,16,03,05,2.70
2009,04,16,03,06,2.70
2009,04,16,03,07,2.70
2009,04,16,03,08,2.70
2009,04,16,03,09,2.70
2009,04,16,03,10,2.70
2009,04,16,03,11,2.70
2009,04,16,03,12,2.70
2009,04,16,03,13,2.70
2009,04,16,03,14,2.70
2009,04,16,03,15,2.70
2009,04,16,03,16,2.70
2009,04,16,03,17,2.60
2009,04,16,03,18,2.60
2009,04,16,03,19,2.50
2009,04,16,03,20,2.50
2009,04,16,03,21,2.40
2009,04,16,03,22,2.30
2009,04,16,03,23,2.20
2009,04,16,03,24,2.20
2009,04,16,03,25,2.10
2009,04,16,03,26,2.10
2009,04,16,03,27,2.00
2009,04,16,03,28,2.00
2009,04,16,03,29,1.90
2009,04,16,03,30,1.90
2009,04,16,03,31,1.80
2009,04,16,03,32,1.80
2009,04,16,03,33,1.80
2009,04,16,03,34,1.80
2009,04,16,03,35,1.80
2009,04,16,03,36,1.80
2009,04,16,03,37,1.80
2009,04,16,03,38,1.80
2009,04,16,03,39,1.80
2009,04,16,03,40,1.80
2009,04,16,03,41,1.80
2009,04,16,03,42,1.70
2009,04,16,03,43,1.70
2009,04,16,03,44,1.70
2009,04,16,03,45,1.70
2009,04,16,03,46,1.70
2009,04,16,03,47,1.60
2009,04,16,03,48,1.60
2009,04,16,03,49,1.50
2009,04,16,03,50,1.50
2009,04,16,03,51,1.40
2009,04,16,03,52,1.40
2009,04,16,03,53,1.30
2009,04,16,03,54,1.30
2009,04,16,03,55,1.30
2009,04,16,03,56,1.30
2009,04,16,03,57,1.30
2009,04,16,03,58,1.30
2009,04,16,03,59,1.20
2009,04,16,04,00,1.20
2009,04,16,04,01,1.20
2009,04,16,04,02,1.20
2009,04,16,04,03,1.20
2009,04,16,04,04,1.10
2009,04,16,04,05,1.10
2009,04,16,04,06,1.10
2009,04,16,04,07,1.00
2009,04,16,04,08,1.00
2009,04,16,04,09,1.00
2009,04,16,04,10,1.00
2009,04,16,04,11,1.00
2009,04,16,04,12,1.00
2009,04,16,04,13,1.00
2009,04,16,04,14,1.10
2009,04,16,04,15,1.10
2009,04,16,04,16,1.10
2009,04,16,04,17,1.10
2009,04,16,04,18,1.00
2009,04,16,04,19,1.00
2009,04,16,04,20,1.00
2009,04,16,04,21,0.90
2009,04,16,04,22,0.90
2009,04,16,04,23,0.80
2009,04,16,04,24,0.80
2009,04,16,04,25,0.70
2009,04,16,04,26,0.70
2009,04,16,04,27,0.70
2009,04,16,04,28,0.60
2009,04,16,04,29,0.60
2009,04,16,04,30,0.60
2009,04,16,04,31,0.60
2009,04,16,04,32,0.60
2009,04,16,04,33,0.60
2009,04,16,04,34,0.70
2009,04,16,04,35,0.70
2009,04,16,04,36,0.80
2009,04,16,04,37,0.80
2009,04,16,04,38,0.70
2009,04,16,04,39,0.70
2009,04,16,04,40,0.60
2009,04,16,04,41,0.50
2009,04,16,04,42,0.50
2009,04,16,04,43,0.50
2009,04,16,04,44,0.40
2009,04,16,04,45,0.40
2009,04,16,04,46,0.40
2009,04,16,04,47,0.40
2009,04,16,04,48,0.40
2009,04,16,04,49,0.40
2009,04,16,04,50,0.40
2009,04,16,04,51,0.40
2009,04,16,04,52,0.40
2009,04,16,04,53,0.40
2009,04,16,04,54,0.40
2009,04,16,04,55,0.50
2009,04,16,04,56,0.50
2009,04,16,04,57,0.50
2009,04,16,04,58,0.50
2009,04,16,04,59,0.50
2009,04,16,05,00,0.50
2009,04,16,05,01,0.50
2009,04,16,05,02,0.50
2009,04,16,05,03,0.50
2009,04,16,05,04,0.50
2009,04,16,05,05,0.60
2009,04,16,05,06,0.60
2009,04,16,05,07,0.60
2009,04,16,05,08,0.60
2009,04,16,05,09,0.60
2009,04,16,05,10,0.70
2009,04,16,05,11,0.70
2009,04,16,05,12,0.70
2009,04,16,05,13,0.70
2009,04,16,05,14,0.70
2009,04,16,05,15,0.70
2009,04,16,05,16,0.70
2009,04,16,05,17,0.80
2009,04,16,05,18,0.80
2009,04,16,05,19,0.80
2009,04,16,05,20,0.80
2009,04,16,05,21,0.80
2009,04,16,05,22,0.80
2009,04,16,05,23,0.80
2009,04,16,05,24,0.80
2009,04,16,05,25,0.80
2009,04,16,05,26,0.80
2009,04,16,05,27,0.80
2009,04,16,05,28,0.80
2009,04,16,05,29,0.80
2009,04,16,05,30,0.80
2009,04,16,05,31,0.80
2009,04,16,05,32,0.80
2009,04,16,05,33,0.80
2009,04,16,05,34,0.90
2009,04,16,05,35,0.90
2009,04,16,05,36,0.90
2009,04,16,05,37,0.90
2009,04,16,05,38,1.00
2009,04,16,05,39,1.00
2009,04,16,05,40,1.00
2009,04,16,05,41,1.10
2009,04,16,05,42,1.10
2009,04,16,05,43,1.20
2009,04,16,05,44,1.20
2009,04,16,05,45,1.20
2009,04,16,05,46,1.20
2009,04,16,05,47,1.20
2009,04,16,05,48,1.20
2009,04,16,05,49,1.10
2009,04,16,05,50,1.10
2009,04,16,05,51,1.10
2009,04,16,05,52,1.00
2009,04,16,05,53,1.00
2009,04,16,05,54,1.00
2009,04,16,05,55,1.00
2009,04,16,05,56,1.00
2009,04,16,05,57,0.90
2009,04,16,05,58,0.90
2009,04,16,05,59,0.90
2009,04,16,06,00,0.90
2009,04,16,06,01,0.90
2009,04,16,06,02,0.90
2009,04,16,06,03,0.90
2009,04,16,06,04,0.90
2009,04,16,06,05,0.90
2009,04,16,06,06,1.00
2009,04,16,06,07,1.00
2009,04,16,06,08,1.10
2009,04,16,06,09,1.20
2009,04,16,06,10,1.20
2009,04,16,06,11,1.30
2009,04,16,06,12,1.40
2009,04,16,06,13,1.50
2009,04,16,06,14,1.60
2009,04,16,06,15,1.60
2009,04,16,06,16,1.70
2009,04,16,06,17,1.70
2009,04,16,06,18,1.80
2009,04,16,06,19,1.80
2009,04,16,06,20,1.80
2009,04,16,06,21,1.80
2009,04,16,06,22,1.90
2009,04,16,06,23,1.90
2009,04,16,06,24,1.90
2009,04,16,06,25,1.90
2009,04,16,06,26,1.90
2009,04,16,06,27,1.90
2009,04,16,06,28,1.90
2009,04,16,06,29,1.90
2009,04,16,06,30,1.90
2009,04,16,06,31,1.80
2009,04,16,06,32,1.80
2009,04,16,06,33,1.80
2009,04,16,06,34,1.80
2009,04,16,06,35,1.80
2009,04,16,06,36,1.80
2009,04,16,06,37,1.70
2009,04,16,06,38,1.70
2009,04,16,06,39,1.70
2009,04,16,06,40,1.70
2009,04,16,06,41,1.70
2009,04,16,06,42,1.70
2009,04,16,06,43,1.70
2009,04,16,06,44,1.80
2009,04,16,06,45,1.80
2009,04,16,06,46,1.80
2009,04,16,06,47,1.90
2009,04,16,06,48,2.00
2009,04,16,06,49,2.00
2009,04,16,06,50,2.10
2009,04,16,06,51,2.10
2009,04,16,06,52,2.20
2009,04,16,06,53,2.20
2009,04,16,06,54,2.20
2009,04,16,06,55,2.30
2009,04,16,06,56,2.20
2009,04,16,06,57,2.20
2009,04,16,06,58,2.20
2009,04,16,06,59,2.20
2009,04,16,07,00,2.20
2009,04,16,07,01,2.20
2009,04,16,07,02,2.10
2009,04,16,07,03,2.10
2009,04,16,07,04,2.10
2009,04,16,07,05,2.10
2009,04,16,07,06,2.20
2009,04,16,07,07,2.20
2009,04,16,07,08,2.20
2009,04,16,07,09,2.20
2009,04,16,07,10,2.20
2009,04,16,07,11,2.20
2009,04,16,07,12,2.20
2009,04,16,07,13,2.30
2009,04,16,07,14,2.30
2009,04,16,07,15,2.30
2009,04,16,07,16,2.30
2009,04,16,07,17,2.30
2009,04,16,07,18,2.30
2009,04,16,07,19,2.30
2009,04,16,07,20,2.30
2009,04,16,07,21,2.40
2009,04,16,07,22,2.40
2009,04,16,07,23,2.40
2009,04,16,07,24,2.40
2009,04,16,07,25,2.30
2009,04,16,07,26,2.30
2009,04,16,07,27,2.20
2009,04,16,07,28,2.20
2009,04,16,07,29,2.20
2009,04,16,07,30,2.20
2009,04,16,07,31,2.20
2009,04,16,07,32,2.20
2009,04,16,07,33,2.20
2009,04,16,07,34,2.20
2009,04,16,07,35,2.20
2009,04,16,07,36,2.20
2009,04,16,07,37,2.20
2009,04,16,07,38,2.30
2009,04,16,07,39,2.40
2009,04,16,07,40,2.40
2009,04,16,07,41,2.50
2009,04,16,07,42,2.60
2009,04,16,07,43,2.60
2009,04,16,07,44,2.70
2009,04,16,07,45,2.70
2009,04,16,07,46,2.80
2009,04,16,07,47,2.90
2009,04,16,07,48,2.90
2009,04,16,07,49,3.00
2009,04,16,07,50,3.10
2009,04,16,07,51,3.10
2009,04,16,07,52,3.20
2009,04,16,07,53,3.30
2009,04,16,07,54,3.30
2009,04,16,07,55,3.40
2009,04,16,07,56,3.50
2009,04,16,07,57,3.50
2009,04,16,07,58,3.60
2009,04,16,07,59,3.60
2009,04,16,08,00,3.60
2009,04,16,08,01,3.70
2009,04,16,08,02,3.80
2009,04,16,08,03,3.80
2009,04,16,08,04,3.80
2009,04,16,08,05,3.90
2009,04,16,08,06,3.90
2009,04,16,08,07,4.00
2009,04,16,08,08,4.00
2009,04,16,08,09,4.10
2009,04,16,08,10,4.10
2009,04,16,08,11,4.20
2009,04,16,08,12,4.20
2009,04,16,08,13,4.20
2009,04,16,08,14,4.30
2009,04,16,08,15,4.30
2009,04,16,08,16,4.40
2009,04,16,08,17,4.40
2009,04,16,08,18,4.50
2009,04,16,08,19,4.50
2009,04,16,08,20,4.60
2009,04,16,08,21,4.60
2009,04,16,08,22,4.70
2009,04,16,08,23,4.70
2009,04,16,08,24,4.80
2009,04,16,08,25,4.90
2009,04,16,08,26,4.90
2009,04,16,08,27,4.90
2009,04,16,08,28,5.00
2009,04,16,08,29,5.10
2009,04,16,08,30,5.10
2009,04,16,08,31,5.20
2009,04,16,08,32,5.30
2009,04,16,08,33,5.30
2009,04,16,08,34,5.40
2009,04,16,08,35,5.50
2009,04,16,08,36,5.50
2009,04,16,08,37,5.60
2009,04,16,08,38,5.60
2009,04,16,08,39,5.70
2009,04,16,08,40,5.70
2009,04,16,08,41,5.70
2009,04,16,08,42,5.80
2009,04,16,08,43,5.80
2009,04,16,08,44,5.90
2009,04,16,08,45,5.90
2009,04,16,08,46,5.90
2009,04,16,08,47,5.90
2009,04,16,08,48,6.00
2009,04,16,08,49,5.90
2009,04,16,08,50,5.90
2009,04,16,08,51,6.00
2009,04,16,08,52,6.00
2009,04,16,08,53,6.00
2009,04,16,08,54,6.00
2009,04,16,08,55,6.00
2009,04,16,08,56,6.00
2009,04,16,08,57,6.10
2009,04,16,08,58,6.10
2009,04,16,08,59,6.10
2009,04,16,09,00,6.20
2009,04,16,09,01,6.20
2009,04,16,09,02,6.20
2009,04,16,09,03,6.20
2009,04,16,09,04,6.20
2009,04,16,09,05,6.20
2009,04,16,09,06,6.20
2009,04,16,09,07,6.30
2009,04,16,09,08,6.30
2009,04,16,09,09,6.30
2009,04,16,09,10,6.30
2009,04,16,09,11,6.30
2009,04,16,09,12,6.40
2009,04,16,09,13,6.40
2009,04,16,09,14,6.40
2009,04,16,09,15,6.40
2009,04,16,09,16,6.40
2009,04,16,09,17,6.40
2009,04,16,09,18,6.40
2009,04,16,09,19,6.40
2009,04,16,09,20,6.40
2009,04,16,09,21,6.40
2009,04,16,09,22,6.60
2009,04,16,09,23,6.60
2009,04,16,09,24,6.60
2009,04,16,09,25,6.60
2009,04,16,09,26,6.60
2009,04,16,09,27,6.60
2009,04,16,09,28,6.60
2009,04,16,09,29,6.60
2009,04,16,09,30,6.60
2009,04,16,09,31,6.60
2009,04,16,09,32,6.60
2009,04,16,09,33,6.60
2009,04,16,09,34,6.60
2009,04,16,09,35,6.60
2009,04,16,09,36,6.60
2009,04,16,09,37,6.60
2009,04,16,09,38,6.60
2009,04,16,09,39,6.60
2009,04,16,09,40,6.60
2009,04,16,09,41,6.60
2009,04,16,09,42,6.50
2009,04,16,09,43,6.50
2009,04,16,09,44,6.40
2009,04,16,09,45,6.40
2009,04,16,09,46,6.40
2009,04,16,09,47,6.40
2009,04,16,09,48,6.40
2009,04,16,09,49,6.40
2009,04,16,09,50,6.40
2009,04,16,09,51,6.40
2009,04,16,09,52,6.40
2009,04,16,09,53,6.40
2009,04,16,09,54,6.40
2009,04,16,09,55,6.30
2009,04,16,09,56,6.30
2009,04,16,09,57,6.30
2009,04,16,09,58,6.30
2009,04,16,09,59,6.20
2009,04,16,10,00,6.20
2009,04,16,10,01,6.20
2009,04,16,10,02,6.30
2009,04,16,10,03,6.30
2009,04,16,10,04,6.30
2009,04,16,10,05,6.30
2009,04,16,10,06,6.30
2009,04,16,10,07,6.30
2009,04,16,10,08,6.30
2009,04,16,10,09,6.30
2009,04,16,10,10,6.30
2009,04,16,10,11,6.30
2009,04,16,10,12,6.30
2009,04,16,10,13,6.30
2009,04,16,10,14,6.40
2009,04,16,10,15,6.40
2009,04,16,10,16,6.40
2009,04,16,10,17,6.40
2009,04,16,10,18,6.40
2009,04,16,10,19,6.40
2009,04,16,10,20,6.40
2009,04,16,10,21,6.40
2009,04,16,10,22,6.40
2009,04,16,10,23,6.40
2009,04,16,10,24,6.40
2009,04,16,10,25,6.50
2009,04,16,10,26,6.60
2009,04,16,10,27,6.60
2009,04,16,10,28,6.60
2009,04,16,10,29,6.70
2009,04,16,10,30,6.80
2009,04,16,10,31,6.80
2009,04,16,10,32,6.80
2009,04,16,10,33,6.80
2009,04,16,10,34,6.80
2009,04,16,10,35,6.80
2009,04,16,10,36,6.90
2009,04,16,10,37,6.90
2009,04,16,10,38,7.00
2009,04,16,10,39,7.00
2009,04,16,10,40,7.10
2009,04,16,10,41,7.10
2009,04,16,10,42,7.20
2009,04,16,10,43,7.20
2009,04,16,10,44,7.20
2009,04,16,10,45,7.20
2009,04,16,10,46,7.30
2009,04,16,10,47,7.40
2009,04,16,10,48,7.40
2009,04,16,10,49,7.50
2009,04,16,10,50,7.40
2009,04,16,10,51,7.40
2009,04,16,10,52,7.40
2009,04,16,10,53,7.40
2009,04,16,10,54,7.50
2009,04,16,10,55,7.60
2009,04,16,10,56,7.60
2009,04,16,10,57,7.60
2009,04,16,10,58,7.60
2009,04,16,10,59,7.50
2009,04,16,11,00,7.50
2009,04,16,11,01,7.50
2009,04,16,11,02,7.50
2009,04,16,11,03,7.50
2009,04,16,11,04,7.50
2009,04,16,11,05,7.50
2009,04,16,11,06,7.50
2009,04,16,11,07,7.60
2009,04,16,11,08,7.60
2009,04,16,11,09,7.60
2009,04,16,11,10,7.60
2009,04,16,11,11,7.60
2009,04,16,11,12,7.60
2009,04,16,11,13,7.70
2009,04,16,11,14,7.80
2009,04,16,11,15,7.80
2009,04,16,11,16,7.80
2009,04,16,11,17,7.80
2009,04,16,11,18,7.80
2009,04,16,11,19,7.90
2009,04,16,11,20,7.90
2009,04,16,11,21,8.00
2009,04,16,11,22,8.10
2009,04,16,11,23,8.20
2009,04,16,11,24,8.20
2009,04,16,11,25,8.30
2009,04,16,11,26,8.30
2009,04,16,11,27,8.30
2009,04,16,11,28,8.40
2009,04,16,11,29,8.40
2009,04,16,11,30,8.40
2009,04,16,11,31,8.50
2009,04,16,11,32,8.50
2009,04,16,11,33,8.30
2009,04,16,11,34,8.20
2009,04,16,11,35,8.00
2009,04,16,11,36,7.90
2009,04,16,11,37,7.90
2009,04,16,11,38,7.90
2009,04,16,11,39,7.90
2009,04,16,11,40,7.90
2009,04,16,11,41,7.90
2009,04,16,11,42,8.00
2009,04,16,11,43,8.00
2009,04,16,11,44,8.00
2009,04,16,11,45,8.00
2009,04,16,11,46,8.00
2009,04,16,11,47,8.00
2009,04,16,11,48,7.90
2009,04,16,11,49,8.00
2009,04,16,11,50,8.00
2009,04,16,11,51,7.90
2009,04,16,11,52,7.90
2009,04,16,11,53,7.90
2009,04,16,11,54,7.90
2009,04,16,11,55,7.90
2009,04,16,11,56,7.90
2009,04,16,11,57,7.90
2009,04,16,11,58,7.90
2009,04,16,11,59,7.90
2009,04,16,12,00,8.00
2009,04,16,12,01,8.00
2009,04,16,12,02,8.00
2009,04,16,12,03,8.10
2009,04,16,12,04,8.20
2009,04,16,12,05,8.20
2009,04,16,12,06,8.20
2009,04,16,12,07,8.30
2009,04,16,12,08,8.30
2009,04,16,12,09,8.40
2009,04,16,12,10,8.40
2009,04,16,12,11,8.50
2009,04,16,12,12,8.60
2009,04,16,12,13,8.60
2009,04,16,12,14,8.50
2009,04,16,12,15,8.50
2009,04,16,12,16,8.50
2009,04,16,12,17,8.60
2009,04,16,12,18,8.60
2009,04,16,12,19,8.70
2009,04,16,12,20,8.70
2009,04,16,12,21,8.90
2009,04,16,12,22,8.90
2009,04,16,12,23,8.90
2009,04,16,12,24,8.90
2009,04,16,12,25,8.90
2009,04,16,12,26,9.00
2009,04,16,12,27,9.00
2009,04,16,12,28,9.10
2009,04,16,12,29,9.20
2009,04,16,12,30,9.20
2009,04,16,12,31,9.10
2009,04,16,12,32,9.20
2009,04,16,12,33,9.20
2009,04,16,12,34,9.00
2009,04,16,12,35,8.90
2009,04,16,12,36,8.80
2009,04,16,12,37,8.70
2009,04,16,12,38,8.70
2009,04,16,12,39,8.80
2009,04,16,12,40,8.80
2009,04,16,12,41,8.80
2009,04,16,12,42,8.80
2009,04,16,12,43,8.90
2009,04,16,12,44,8.90
2009,04,16,12,45,9.00
2009,04,16,12,46,9.00
2009,04,16,12,47,9.00
2009,04,16,12,48,9.00
2009,04,16,12,49,9.00
2009,04,16,12,50,9.10
2009,04,16,12,51,9.10
2009,04,16,12,52,9.20
2009,04,16,12,53,9.10
2009,04,16,12,54,9.20
2009,04,16,12,55,9.10
2009,04,16,12,56,9.10
2009,04,16,12,57,9.10
2009,04,16,12,58,9.10
2009,04,16,12,59,9.10
2009,04,16,13,00,9.10
2009,04,16,13,01,9.10
2009,04,16,13,02,9.10
2009,04,16,13,03,9.10
2009,04,16,13,04,9.20
2009,04,16,13,05,9.20
2009,04,16,13,06,9.30
2009,04,16,13,07,9.40
2009,04,16,13,08,9.40
2009,04,16,13,09,9.40
2009,04,16,13,10,9.30
2009,04,16,13,11,9.20
2009,04,16,13,12,9.20
2009,04,16,13,13,9.20
2009,04,16,13,14,9.20
2009,04,16,13,15,9.20
2009,04,16,13,16,9.20
2009,04,16,13,17,9.20
2009,04,16,13,18,9.20
2009,04,16,13,19,9.30
2009,04,16,13,20,9.40
2009,04,16,13,21,9.40
2009,04,16,13,22,9.50
2009,04,16,13,23,9.60
2009,04,16,13,24,9.60
2009,04,16,13,25,9.70
2009,04,16,13,26,9.70
2009,04,16,13,27,9.70
2009,04,16,13,28,9.80
2009,04,16,13,29,9.90
2009,04,16,13,30,9.80
2009,04,16,13,31,9.80
2009,04,16,13,32,9.80
2009,04,16,13,33,9.90
2009,04,16,13,34,9.90
2009,04,16,13,35,9.90
2009,04,16,13,36,9.90
2009,04,16,13,37,9.90
2009,04,16,13,38,10.00
2009,04,16,13,39,10.10
2009,04,16,13,40,10.10
2009,04,16,13,41,10.20
2009,04,16,13,42,10.30
2009,04,16,13,43,10.30
2009,04,16,13,44,10.40
2009,04,16,13,45,10.40
2009,04,16,13,46,10.40
2009,04,16,13,47,10.40
2009,04,16,13,48,10.40
2009,04,16,13,49,10.40
2009,04,16,13,50,10.40
2009,04,16,13,51,10.40
2009,04,16,13,52,10.50
2009,04,16,13,53,10.60
2009,04,16,13,54,10.60
2009,04,16,13,55,10.60
2009,04,16,13,56,10.70
2009,04,16,13,57,10.80
2009,04,16,13,58,10.80
2009,04,16,13,59,10.90
2009,04,16,14,00,10.90
2009,04,16,14,01,10.90
2009,04,16,14,02,10.90
2009,04,16,14,03,10.80
2009,04,16,14,04,10.70
2009,04,16,14,05,10.70
2009,04,16,14,06,10.70
2009,04,16,14,07,10.70
2009,04,16,14,08,10.70
2009,04,16,14,09,10.80
2009,04,16,14,10,10.70
2009,04,16,14,11,10.70
2009,04,16,14,12,10.80
2009,04,16,14,13,10.80
2009,04,16,14,14,10.80
2009,04,16,14,15,10.80
2009,04,16,14,16,10.90
2009,04,16,14,17,10.90
2009,04,16,14,18,11.00
2009,04,16,14,19,11.10
2009,04,16,14,20,11.10
2009,04,16,14,21,11.00
2009,04,16,14,22,10.90
2009,04,16,14,23,10.80
2009,04,16,14,24,10.70
2009,04,16,14,25,10.70
2009,04,16,14,26,10.70
2009,04,16,14,27,10.70
2009,04,16,14,28,10.70
2009,04,16,14,29,10.70
2009,04,16,14,30,10.70
2009,04,16,14,31,10.70
2009,04,16,14,32,10.80
2009,04,16,14,33,10.80
2009,04,16,14,34,10.90
2009,04,16,14,35,10.90
2009,04,16,14,36,10.90
2009,04,16,14,37,11.00
2009,04,16,14,38,11.10
2009,04,16,14,39,11.10
2009,04,16,14,40,11.30
2009,04,16,14,41,11.30
2009,04,16,14,42,11.40
2009,04,16,14,43,11.40
2009,04,16,14,44,11.40
2009,04,16,14,45,11.40
2009,04,16,14,46,11.40
2009,04,16,14,47,11.40
2009,04,16,14,48,11.40
2009,04,16,14,49,11.40
2009,04,16,14,50,11.50
2009,04,16,14,51,11.60
2009,04,16,14,52,11.60
2009,04,16,14,53,11.60
2009,04,16,14,54,11.60
2009,04,16,14,55,11.60
2009,04,16,14,56,11.60
2009,04,16,14,57,11.50
2009,04,16,14,58,11.30
2009,04,16,14,59,11.20
2009,04,16,15,00,11.10
2009,04,16,15,01,11.10
2009,04,16,15,02,11.00
2009,04,16,15,03,10.90
2009,04,16,15,04,10.90
2009,04,16,15,05,10.80
2009,04,16,15,06,10.80
2009,04,16,15,07,10.80
2009,04,16,15,08,10.80
2009,04,16,15,09,10.80
2009,04,16,15,10,10.90
2009,04,16,15,11,10.80
2009,04,16,15,12,10.80
2009,04,16,15,13,10.80
2009,04,16,15,14,10.80
2009,04,16,15,15,10.80
2009,04,16,15,16,10.80
2009,04,16,15,17,10.80
2009,04,16,15,18,10.90
2009,04,16,15,19,11.00
2009,04,16,15,20,11.10
2009,04,16,15,21,11.10
2009,04,16,15,22,11.10
2009,04,16,15,23,11.00
2009,04,16,15,24,10.90
2009,04,16,15,25,10.80
2009,04,16,15,26,10.80
2009,04,16,15,27,10.80
2009,04,16,15,28,10.80
2009,04,16,15,29,10.90
2009,04,16,15,30,10.80
2009,04,16,15,31,10.80
2009,04,16,15,32,10.70
2009,04,16,15,33,10.60
2009,04,16,15,34,10.60
2009,04,16,15,35,10.60
2009,04,16,15,36,10.60
2009,04,16,15,37,10.70
2009,04,16,15,38,10.70
2009,04,16,15,39,10.70
2009,04,16,15,40,10.70
2009,04,16,15,41,10.80
2009,04,16,15,42,10.90
2009,04,16,15,43,10.90
2009,04,16,15,44,10.90
2009,04,16,15,45,10.90
2009,04,16,15,46,10.90
2009,04,16,15,47,10.90
2009,04,16,15,48,10.90
2009,04,16,15,49,10.90
2009,04,16,15,50,10.90
2009,04,16,15,51,10.90
2009,04,16,15,52,10.90
2009,04,16,15,53,10.90
2009,04,16,15,54,10.90
2009,04,16,15,55,10.90
2009,04,16,15,56,10.90
2009,04,16,15,57,10.90
2009,04,16,15,58,10.90
2009,04,16,15,59,10.90
2009,04,16,16,00,10.90
2009,04,16,16,01,10.90
2009,04,16,16,02,11.00
2009,04,16,16,03,10.90
2009,04,16,16,04,10.90
2009,04,16,16,05,10.80
2009,04,16,16,06,10.70
2009,04,16,16,07,10.60
2009,04,16,16,08,10.60
2009,04,16,16,09,10.50
2009,04,16,16,10,10.40
2009,04,16,16,11,10.40
2009,04,16,16,12,10.40
2009,04,16,16,13,10.40
2009,04,16,16,14,10.40
2009,04,16,16,15,10.40
2009,04,16,16,16,10.40
2009,04,16,16,17,10.50
2009,04,16,16,18,10.60
2009,04,16,16,19,10.60
2009,04,16,16,20,10.60
2009,04,16,16,21,10.50
2009,04,16,16,22,10.40
2009,04,16,16,23,10.40
2009,04,16,16,24,10.40
2009,04,16,16,25,10.40
2009,04,16,16,26,10.40
2009,04,16,16,27,10.40
2009,04,16,16,28,10.30
2009,04,16,16,29,10.30
2009,04,16,16,30,10.30
2009,04,16,16,31,10.20
2009,04,16,16,32,10.20
2009,04,16,16,33,10.20
2009,04,16,16,34,10.20
2009,04,16,16,35,10.20
2009,04,16,16,36,10.30
2009,04,16,16,37,10.30
2009,04,16,16,38,10.30
2009,04,16,16,39,10.30
2009,04,16,16,40,10.40
2009,04,16,16,41,10.40
2009,04,16,16,42,10.40
2009,04,16,16,43,10.40
2009,04,16,16,44,10.40
2009,04,16,16,45,10.40
2009,04,16,16,46,10.50
2009,04,16,16,47,10.60
2009,04,16,16,48,10.60
2009,04,16,16,49,10.60
2009,04,16,16,50,10.60
2009,04,16,16,51,10.60
2009,04,16,16,52,10.60
2009,04,16,16,53,10.60
2009,04,16,16,54,10.60
2009,04,16,16,55,10.60
2009,04,16,16,56,10.60
2009,04,16,16,57,10.60
2009,04,16,16,58,10.60
2009,04,16,16,59,10.60
2009,04,16,17,00,10.60
2009,04,16,17,01,10.60
2009,04,16,17,02,10.60
2009,04,16,17,03,10.60
2009,04,16,17,04,10.60
2009,04,16,17,05,10.60
2009,04,16,17,06,10.60
2009,04,16,17,07,10.60
2009,04,16,17,08,10.60
2009,04,16,17,09,10.60
2009,04,16,17,10,10.60
2009,04,16,17,11,10.60
2009,04,16,17,12,10.60
2009,04,16,17,13,10.60
2009,04,16,17,14,10.60
2009,04,16,17,15,10.60
2009,04,16,17,16,10.60
2009,04,16,17,17,10.60
2009,04,16,17,18,10.60
2009,04,16,17,19,10.60
2009,04,16,17,20,10.60
2009,04,16,17,21,10.60
2009,04,16,17,22,10.70
2009,04,16,17,23,10.70
2009,04,16,17,24,10.70
2009,04,16,17,25,10.70
2009,04,16,17,26,10.70
2009,04,16,17,27,10.70
2009,04,16,17,28,10.70
2009,04,16,17,29,10.70
2009,04,16,17,30,10.60
2009,04,16,17,31,10.60
2009,04,16,17,32,10.60
2009,04,16,17,33,10.60
2009,04,16,17,34,10.50
2009,04,16,17,35,10.40
2009,04,16,17,36,10.40
2009,04,16,17,37,10.40
2009,04,16,17,38,10.40
2009,04,16,17,39,10.40
2009,04,16,17,40,10.40
2009,04,16,17,41,10.40
2009,04,16,17,42,10.40
2009,04,16,17,43,10.40
2009,04,16,17,44,10.40
2009,04,16,17,45,10.40
2009,04,16,17,46,10.40
2009,04,16,17,47,10.40
2009,04,16,17,48,10.30
2009,04,16,17,49,10.30
2009,04,16,17,50,10.30
2009,04,16,17,51,10.30
2009,04,16,17,52,10.30
2009,04,16,17,53,10.30
2009,04,16,17,54,10.40
2009,04,16,17,55,10.40